Home   Weather   Campinas   Past weeks

Flag for Brazil Past Weather in Campinas, São Paulo, Brazil — Yesterday and Last 2 Weeks

Now
66 °F

Sunny.


Feels Like: 66 °F
Forecast: 50 / 73 °F
Wind: 7 mph from Northeast

Location: Campinas Aeroporto

Current Time: Jun 27, 2017 at 11:02:10 am

Latest Report: Jun 27, 2017 at 10:00 am


Visibility: 10 mi

Pressure: 30.30 "Hg (27.96 "Hg at 686m altitude)

Humidity: 52%

Dew Point: 48 °F

Location of CampinasLocation

Past Weather in Campinas — Graph

°F

Campinas Temperature Yesterday

Maximum temperature yesterday: 77 °F (at 2:00 pm)
Minimum temperature yesterday: 55 °F (at 4:00 am)
Average temperature yesterday: 65 °F

High & Low Weather Summary for the Past Weeks

 TemperatureHumidityPressure
High79 °F (Jun 17, 2:00 pm)100% (Jun 13, 7:15 am)30.33 "Hg (Jun 13, 7:15 am)
Low55 °F (Jun 13, 6:30 am)34% (Jun 19, 2:00 pm)30.04 "Hg (Jun 17, 4:00 pm)
Average64 °F76%30.19 "Hg
* Reported Jun 12 9:00 am — Jun 27 9:00 am, Campinas. Weather by CustomWeather, © 2017

Note: Actual official high and low records may vary slightly from our data, if they occured in-between our weather recording intervals... More about our weather records

Advertising

Campinas Weather History for the Previous 24 Hours

Scroll right to see more
 ConditionsComfort  
Time TempWeatherWind HumidityBarometerVisibility
9:00 am
Tue, Jun 27
61 °FSunny.6 mph68%30.27 "Hg10 mi
8:00 am55 °FSunny.3 mph82%30.24 "Hg10 mi
7:00 am55 °FSunny.3 mph82%30.21 "Hg10 mi
6:00 am55 °FClear.6 mph88%30.21 "Hg10 mi
5:00 am57 °FClear.5 mph88%30.18 "Hg10 mi
4:00 am57 °FClear.6 mph88%30.18 "Hg10 mi
3:00 am57 °FClear.7 mph94%30.21 "Hg10 mi
2:00 am59 °FClear.7 mph88%30.21 "Hg10 mi
1:00 am59 °FClear.7 mph88%30.24 "Hg10 mi
12:00 am59 °FClear.6 mph88%30.24 "Hg10 mi
11:00 pm
Mon, Jun 26
63 °FClear.9 mph77%30.24 "Hg10 mi
10:00 pm63 °FPassing clouds.9 mph77%30.24 "HgN/A
9:00 pm64 °FPassing clouds.6 mph78%30.21 "HgN/A
8:00 pm66 °FClear.9 mph68%30.21 "Hg10 mi
7:00 pm70 °FClear.3 mph57%30.21 "Hg10 mi
6:00 pm72 °FClear.6 mph53%30.21 "Hg10 mi
5:00 pm75 °FScattered clouds.7 mph41%30.18 "HgN/A
4:00 pm77 °FPassing clouds.5 mph39%30.18 "HgN/A
3:00 pm77 °FPassing clouds.3 mph39%30.18 "HgN/A
2:00 pm77 °FSunny.6 mph39%30.21 "Hg10 mi
1:00 pm75 °FSunny.6 mph44%30.24 "Hg10 mi
12:00 pm73 °FSunny.6 mph47%30.27 "Hg10 mi
11:00 am70 °FSunny.5 mph64%30.30 "Hg10 mi
Weather by CustomWeather, © 2017

See weather overviewHow to use our weather pages